Voltar ao catálogo

STARLINK-37283

AtivoComunicaçõesVLEO
NORAD 68568·PAYLOAD·🇺🇸 United States

Lançado Apr 2, 2026 de Cape Canaveral Space Force Station

Loading…

Próximas Passagens (próximas 24 horas)

TLE

AtualizadoSource: CelesTrak SupGP

Época: Sep 14, 2026, 21:25 UTC

1 68568C 26070AC  26257.89284722  .00015313  00000+0  45253-3 0  2573
2 68568  53.1591 200.2572 0001519  91.4072 205.9598 15.34375780    18

Acompanhe STARLINK-37283 em tempo real com AllMySat

Download on the App Store